User: anonymous   Login
Location: Mount Tamalpais State Park
(37.9108°N, 122.6128°W)
Time: 11:02:42
(UTC-08:00)
Language:

Cosmos 1814 Rocket - Orbit

View from above orbital plane
View from above orbital plane
View from above satellite
View from above satellite

Ground track
Ground track

The orbit data is extracted from the following two-line orbital elements,

1 17304U 87006B   14325.53414162  .00000248  00000-0  91375-4 0  2814
2 17304 074.0603 015.7279 0028497 088.7874 014.9321 14.37388888458421
Epoch (UTC): 21 November 2014 12:49:09
Eccentricity: 0.0028497
inclination: 74.0603°
perigee height: 747 km
apogee height: 787 km
right ascension of ascending node: 15.7279°
argument of perigee: 88.7874°
revolutions per day: 14.37388888
mean anomaly at epoch: 14.9321°
orbit number at epoch: 45842

The dashed part of the orbit path shows where the satellite is in the earth's shadow,  

DLR